DELTA 1 DEB, 2706

Orbit data source: Space-Track

DELTA 1 DEB, 2706 is space debris in SSO originally from a launch on Thu, 26 Jan 1967 UTC launched from the Air Force Western Test Range (AFWTR). Debris objects in space refer to the collection of defunct objects orbiting the Earth. Examples of debris include non-operational satellites, rocket bodies, and fragments generated from explosions, collisions, or faulty payload assembly.

Loading next visibility...
Identifier
2706, 1967-006C
Orbit
SSO
Country
Flag of USUS
Related business
Manufacturer
Unknown
Mission
Spacecraft
Bus & Motor
Unknown
Mass
Unknown
Launch date (UTC)
1967-01-26 (59 years ago)
Launch vehicle
Unknown
Launch site
Air Force Western Test Range (AFWTR)
Object type
Payload
Rocket body
Debris
Shape & HBR
Unknown shape, 0.1 m
Radar Cross Section
Small (<0.1 m²)

Expand to show TLE details & history
Last TLE update: 3 days ago

TLE from 3 days ago
0 DELTA 1 DEB
1  2706U 67006C   26071.57201802 -.00000037  00000-0  67099-4 0  9991
2  2706 102.1882 107.7128 0035496 242.3467 271.3064 12.60931524720375
Epoch: 2026-03-12T13:43Z
TLE epoch observation values (Epoch: 2026-03-12T13:43:42.356Z)
Latitude
26.13845°
Longitude
-82.37941°
Altitude
1,421.442 km
Speed
7.153 km/s
True Right ascension
19h 35m 04s
True Declination
26° 00' 51"
Sunlit
Object was in daylight at epoch
Visualization orbit readout
Latitude
Unknown
Longitude
Unknown
Altitude
Unknown
Speed
Unknown
Apparent Right ascension
Unknown
Apparent Declination
Unknown
Sunlit
N/A
Visualization observer readout
Local Sidereal Time
12:46:01
Azimuth
Unknown
Elevation
Unknown
Doppler factor
Unknown
Orbital elements
Apogee altitude
1,444.329 km
Perigee altitude
1,388.992 km
Semi-major axis
7,794.798 km
Eccentricity
0.00355
Inclination
102.1882°
RAAN
107.7128°
Arg. of periapsis
242.3467°
True anomaly
270.89971°
Mean anomaly
271.3064°
Eccentric anomaly
271.10306°
Mean motion
3.15381 °/min
Orbital period
114.15 mins
BSTAR
0.000067099
Loading maneuver chart data...
Computing Atmospheric mass density...
Loading historical data...
Loading historical data...
Loading historical data...
Loading historical data...
Loading historical data...
Loading historical data...
Loading historical data...
Other satellites on launch #6 in the year 1967 (1967-01-26 UTC)

Documentation

Showing up to 5 results
|